Tracking 25707 objects as of 29-Jun-2022
HD Live streaming from Space Station
objects crossing your sky now

FLOCK 1C 3

Track FLOCK 1C 3 now!
10-day predictions
FLOCK 1C 3 is classified as:


NORAD ID: 40041
Int'l Code: 2014-033AH
Perigee: 585.6 km
Apogee: 603.8 km
Inclination: 98.0 °
Period: 96.4 minutes
Semi major axis: 6965 km
RCS: Unknown
Launch date: June 19, 2014
Source: United States (US)
Launch site: Orenburg, Russia (OREN)
aabbcc
Your satellite tracking list
Your tracking list is empty




NASA's NSSDC Master Catalog

Two Line Element Set (TLE):
1 40041U 14033AH  22180.54520135  .00003506  00000-0  33968-3 0  9994
2 40041  98.0027 127.6505 0013044  11.5946 348.5571 14.93325874435710
Source of the keplerian elements: AFSPC